Прошивки –  Каталог навигаторов –  Восстановление навигатора

Вернуться   Мир Автомобильных навигаторов > PNA / PND Устройства > Автомагнитолы
Регистрация ФайлыПравила форумаБан-лист Справка Календарь Поиск Сообщения за день Все разделы прочитаны

Важная информация


     
Ответ
 
Опции темы
Старый 02.03.2014, 11:46   #1
turinec
Новичок
Доп. информация
По умолчанию Intro InCar CHR - 2 din (магнитолы НЕ на платформе i9/i10/D2280)

[[Ссылки могут видеть только зарегистрированные пользователи. ]]>

Владельцы InCar CHR-7ххх - присоединяйтесь. Будем думать, что с ней можно сделать, а то пока одному страшновато.
[[Ссылки могут видеть только зарегистрированные пользователи. ]]>
Все остальное по этой магнитоле.
Картинки



Характеристики
Характеристики отсюда [[Ссылки могут видеть только зарегистрированные пользователи. ]]>
Параметры дисплея 7" сенсорный, широкоформатный 16:9 TFT LCD, высокого разрешения, 800 х 480 точек, 400 cd/m²
Встроенный GPS приемник, Навигационное ПО в комплекте на SD/MMC карте памяти Навител (лицензия)
Операционная система Windows CE 6.0
Возможность выхода в Интернет, отображение пробок на дороге опционально (модем GPS 3G)
Возможность подключения дополнительно фронтальной камеры и активации ее с дисплея есть
Подсветка кнопок изменяемая
Процессор ARM (с вентилятором для охлаждения)
Встроенный FM/AM тюнер есть, 30 станции предустановки
Удобный русифицированный пользовательский интерфейс есть
Выбор логотипа загрузки** есть
Поддержка CD/DVD без CD/DVD привода
Поддержка SD/USB есть
Поддержка Bluetooth, записная книжка контактов есть
Поддержка форматов файлов*** mp3, wma, wave, mpeg1, mpeg2, mpeg4, wmv, jpeg, gif, bmp
Штатное подключение к кнопкам руля**** есть
Возможность подключения дополнительного монитора есть
Подключение камеры заднего вида есть
TV-тюнер встроенный аналоговый SECAM
Аудио выходы на усилитель есть (модель CDA-4.100)
Отдельный выход на сабвуфер есть (модель INT-801SW)
Возможность подключения iPod/iPhone есть, кабель в комплекте
Пульт Д/У в комплекте


Видео обзор небольшой здесь
[[Ссылки могут видеть только зарегистрированные пользователи. ]]>


PortTool Log v. 1, 0, 0, 23
PortTool Log v. 1, 0, 0, 23
PortTool execution path: \Storage Card\?????_W-CE\PortTool_v1.0.0.23\PortTool.exe
CPU: ARM rev.7
Path to navi: [ ]
USB: [Async/Flash card/CardReader]
UUID in About: [yes/no]
Internet: [yes/no]
RAM: total: 195 Mb, avail: 137 Mb
UUID: 16 byte: 00 00 00 00 00 00 00 00 - 00 00 00 00 00 00 00 0A (0000000000000000000000000000000A)
UUID check: 0
Screen: 800x480 16 bit
OS Version: 6
Battery percent: 0
wininet.dll: yes
OEM info: 'Shenzhen_Yecon_Industry' 48 byte: 53 00 68 00 65 00 6E 00 7A 00 68 00 65 00 6E 00 5F 00 59 00 65 00 63 00 6F 00 6E 00 5F 00 49 00 6E 00 64 00 75 00 73 00 74 00 72 00 79 00 00 00
THUMB: yes
MemAccess: Mapping - 126 ms malloc() - 125 ms Factor: 1 (ok)
FlashCards
name: Residentflash
name: DSK9:
Disk size: 2.93 Mb 3067904 bytes
flashID: none
Write/Read test: Ok
Mapping: Not enough free space

name: Residentflash3
name: DSK9:
Disk size: 4.92 Mb 5156864 bytes
flashID: none
Write/Read test: Ok
Mapping: Not enough free space

name: Residentflash2
name: DSK9:
Disk size: 50.24 Mb 52678656 bytes
flashID: none
Write/Read test: Ok
Mapping: Not enough free space

name: SDMMC
name: DSK1:
Disk size: 7376.00 Mb bytes
flashID: 44 41 41 33 41 45 36 38 00 00 . 32 37
flashID (for registration): 27DAA3AE6800
Write/Read test: Ok
Mapping: AVR Write: 388 KB/s
AVR Read: 0 KB/s
Mapping: Failed
Mapping time: 48 sec, 0 %

name: Storage Card
name: DSK2:
Disk size: 3804.00 Mb bytes
flashID: 30 30 30 30 30 30 30 41 00 00 . 31 31
flashID (for registration): 110000000A00
Write/Read test: Ok
Mapping: AVR Write: 599 KB/s
AVR Read: 0 KB/s
Mapping: Failed
Mapping time: 42 sec, 0 %

name: USBDisk
name: DSK5:
Disk size: 7629.14 Mb bytes
flashID: none
Write/Read test: Ok
Mapping: AVR Write: 371 KB/s
AVR Read: 0 KB/s
Mapping: Failed
Mapping time: 50 sec, 0 %

GPS:
$GPGGA,083714.000,5602.25775,N,09252.59933,E,1,8,1 .32,236.2,M,-35.5,M,,*7C
$GPGSA,A,3,31,23,25,14,12,01,32,20,,,,,2.07,1.32,1 .59*0A
$GPGSV,3,1,11,31,80,189,42,32,60,231,35,20,41,292, 43,25,40,064,48*D
72
$GPGSV,3,2,11,14,36,107,38,12,15,033,28,01,14,257, 40,23,12,286,25*71
$GPGSV,3,3,11,04,03,352,,29,02,093,,43,-99,000,*63
$GPRMC,083714.000,A,5602.25775,N,09252.59933,E,0.0 11,78.28,010314,,A*43
$D
GPVTG,78.28,T,,M,0.011,N,0.021,K,A*0B
$GPGGA,083715.000,5602.25775,N,09252.59933,E,1,8,1 .32,236.2,M,-35.5,M,,*7D
$GPGSA,A,3,31,23,25,14,12,01,32,20,,,,,2.07,1.32,1 .59*0A
$GPGSV,3,1,11,31,80,189,42,D
32,60,231,35,20,41,292,43,25,40,064,48*72
$GPGSV,3,2,11,14,36,107,38,12,15,033,28,01,14,257, 40,23,12,286,25*71
$GPGSV,3,3,11,04,03,352,,29,02,093,,43,-99,000,*63
$GPRMC,083715.000,A,5602.25775,N,09D
Port: COM1:
Rate: 57600

$GPGGA,083717.000,5602.25775,N,09252.59934,E,1,8,1 .32,236.2,M,-35.5,M,,*78
$GPGSA,A,3,31,23,25,14,12,01,32,20,,,,,2.07,1.32,1 .59*0A
$GPGSV,3,1,11,31,80,189,42,32,60,231,35,20,41,292, 43,25,40,064,48*D
72
$GPGSV,3,2,11,14,36,107,38,12,15,033,28,01,14,257, 40,23,12,286,25*71
$GPGSV,3,3,11,04,03,352,,29,02,093,,43,-99,000,*63
$GPRMC,083717.000,A,5602.25775,N,09252.59934,E,0.0 15,78.28,010314,,A*43
$D
GPVTG,78.28,T,,M,0.015,N,0.028,K,A*06
$GPGGA,083718.000,5602.25775,N,09252.59934,E,1,7,1 .36,236.2,M,-35.5,M,,*7C
$GPGSA,A,3,31,25,14,12,01,32,20,,,,,,2.15,1.36,1.6 7*01
$GPGSV,3,1,11,31,80,189,42,32D
,60,231,35,20,41,292,43,25,40,064,48*72
$GPGSV,3,2,11,14,36,107,38,12,15,033,28,01,14,257, 40,23,12,286,24*70
$GPGSV,3,3,11,04,03,352,,29,02,093,,45,-99,000,*65
$GPRMC,083718.000,A,5602.25775,N,0925D
Port: COM2:
Rate: 57600

$GPGGA,083724.000,5602.25773,N,09252.59936,E,1,8,1 .32,236.2,M,-35.5,M,,*7C
$GPGSA,A,3,31,23,25,14,12,01,32,20,,,,,2.07,1.32,1 .59*0A
$GPGSV,3,1,11,31,80,189,42,32,60,231,35,20,41,292, 43,25,40,064,48*D
$GPGGA,083730.000,5602.25773,N,09252.59939,E,1,8,1 .32,236.3,M,-35.5,M,,*77
$GPGSA,A,3,31,23,25,14,12,01,32,20,,,,,2.06,1.32,1 .59*0B
$GPGSV,3,1,11,31,80,189,42,32,60,231,34,20,41,292, 43,25,40,064,48*D
$GPGGA,083736.000,5602.25772,N,09252.59941,E,1,6,2 .11,236.2,M,-35.5,M,,*72
$GPGSA,A,3,31,25,14,01,32,20,,,,,,,4.35,2.11,3.81* 0A
$GPGSV,3,1,11,31,80,189,42,32,60,231,34,20,41,292, 44,25,40,064,48*74
D
$GPGGA,083737.000,5602.25771,N,09252.59941,E,1,8,1 .32,236.2,M,-35.5,M,,*7C
$GPGSA,A,3,31,23,25,14,12,01,32,20,,,,,2.06,1.32,1 .59*0B
$GPGSV,3,1,11,31,80,189,42,32,60,231,34,20,41,292, 44,25,40,064,48*D
74
$GPGSV,3,2,11,14,35,107,37,12,15,033,28,01,14,257, 41,23,13,286,27*7F
$GPGSV,3,3,11,04,03,352,,29,02,093,,49,-99,000,*69
$GPRMC,083737.000,A,5602.25771,N,09252.59941,E,0.0 05,78.28,010314,,A*46
$D
$GPGGA,083742.000,5602.25770,N,09252.59943,E,1,8,1 .32,236.2,M,-35.5,M,,*7D
$GPGSA,A,3,31,23,01,25,14,12,32,20,,,,,2.06,1.32,1 .58*0A
$GPGSV,3,1,11,31,80,188,42,32,60,231,34,20,41,292, 44,25,40,064,48*D
$GPGGA,083748.000,5602.25770,N,09252.59944,E,1,8,1 .59,236.2,M,-35.5,M,,*7D
$GPGSA,A,3,31,23,01,25,14,12,32,20,,,,,2.62,1.59,2 .08*03
$GPGSV,3,1,11,31,80,188,42,32,60,231,31,20,41,292, 44,25,40,064,48*D
$GPGGA,083754.000,5602.25769,N,09252.59944,E,1,8,1 .31,236.1,M,-35.5,M,,*75
$GPGSA,A,3,31,23,01,25,14,12,32,20,,,,,2.06,1.31,1 .58*09
$GPGSV,3,1,11,31,80,188,42,32,60,231,29,20,41,292, 45,25,40,064,48*D
ClearCommError() failed
ClearCommError() failed
ClearCommError() failed
ClearCommError() failed
ClearCommError() failed
ClearCommError() failed
String test: Ok
System date/time: 11:38:07 01.03.2014 (11:38:07, 3/1/2014


Смена часового пояса описана там [[Ссылки могут видеть только зарегистрированные пользователи. ]]> Прошивка [[Ссылки могут видеть только зарегистрированные пользователи. ]]>
turinec вне форума  
7 пользователя(ей) сказали cпасибо:
Старый 03.03.2014, 16:44   #2
des00
Новичок
Доп. информация
По умолчанию INCAR CHR-7ххх. Описание, проблемы, фиксы, прошивки

INCAR CHR-7759

[IMG]htp://caraudio.su/uploads/63dcaa6ffb9a44d39c99a617f21800ca.jpg[/IMG]
  • Сенсорный дисплей 7"
  • Изменяемая подсветка кнопок
  • Разрешение 800*480 пикселей
  • Встроенный GPS приемник
  • Поддержка функции интернет
  • Возможность подключения дополнительно фронтальной камеры и активации ее с дисплея
  • Сохранение штатного USB
  • Поддержка форматов: DVD/VCD/CD/MP3/MPEG4/CD-R/WMA
  • MP3, WMA, WAVE, MPEG1/2, MPEG4, WMV, JPEG, GIF, BMP
  • Память воспроизведения с DVD USB (продолжение воспроизведения с места остановки)
  • Встроенный Bluetooth адаптер (есть записная книжка контактов)
  • Возможность подключения IPod
  • Встроенный FM/AM тюнер
  • Возможность обучения адаптации к рулевому управлению
  • Возможность подключения дополнительно фронтальной камеры и активации ее с дисплея
  • Поддержка USB
  • Руссифицированное меню
  • Возможность прослушивания музыки во время работы GPS навигации
  • Навигационное ПО: Навител лицензия
  • Процессор: ARM (с вентилятором для охлаждения)
  • ОС: Windows CE 6.0
  • Пульт Д/У в комплекте
  • TV-тюнер встроенный аналоговый SECAM

Текущее ПО аппарата

[[Ссылки могут видеть только зарегистрированные пользователи. ]]> 1. Записать содержимое папки на чистую SD карту (не использовать карту с программой навигации),напрямую в корень карты, без папки!
2. Установить SD карту в слот MAP и включить устройство. Загрузка должна начаться автоматически.
3. При появлении на экране кнопки START нажать на нее
4. При появлении на экране кнопки RESET извлечь SD карту и нажать кнопку, устройство должно перезагрузиться.


Техническая информация
Processor arc: ARM
Processor type: StrongArm
Processor core: Cortex-A9
Processor make: SiRF
OS: Windows CE6.0 (build 3122)
Resolution: 800x480
Model Name: BSP Version: AtlasVI CE6EVB_1.4.10-P1
Device type: AT12X0A
RAM: 256Mb
Имя SD карты: GPS Card

интерфейс windows - китайский


Альтернативные меню

Особо описывать нечего, ставится все просто. Искать тут [[Ссылки могут видеть только зарегистрированные пользователи. ]]>
Вместе с меню, ставится и все прочее, к примеру Heroes II



Теперь о проблемах

1. подсветка, как только включаешь габариты — занижается на 0. Ни черта не видно днем, а задним ходом изображения с камеры тем более. Руками исправить в настройках можно, но до выключения питания. Затем все тоже самое. Не лечится. Можно перерезать провод сигнализирующий о включении габаритов, но тогда не будет подсветки кнопок.

2. Блютус. Музыку играет отстойно, "тянет" звук и запинается и перепрыгивает. И это не аудиофильство, любой с одним ухом слышит заедания и изменение скорости. В предыдущей машине был ноунейм китайский блютус-передатчик играл в тясячи раз лучше. Тут невозможно слушать.

3. Адресная книга. Телефоны в адресную книгу, при передаче через bluetooth, косячит — убирает + перед номером. Звонить на эти номера потом нельзя (неправильно набран номер). Если в телефоне исправить номер на 8xxxxxxxxxx, то звонить на него с машины можно, но входящий номер не сопоставиться с именем в книжке т.к. определяются номера как +7. Не лечиться. Техподдержка признает, но ничего не может сделать.

4. Проигрыватель mp3. Хуже я не видел нигде, имена файлов обрезает, вложенные папки не понимает (все вываливает на первый уровень), теги не видит, порядок проигрывания не изменяется и сортирует непонято по какому алгоритму.

5. Навител. Часто вылетает с ошибкой, повторный запуск не исправляет ничего, приходится вырубать магнитолу и включать заново. Обновления, как ссылаються в техподдержке, не помогают вместо одного глюка получаем другой. Самый простой способ получить ошибку - включить задний ход. После этого магнитолу только перегружать.

6. Функция "календарь". Удобная функция, если бы работала. Сейчас это обычный календарь, где на каждый день можно сделать "заметку". Все бы ничего, но заметка может представлять собой только цифры!


Решение проблем.

Решение проблемы телефонной книги
Напомню, магнитола при выкачивании через bluetooth косячит номера, а именно — удаляет у них + перед кодом страны. Таким образом номера становятся "незвонибельными".



Путем исследования системы я понял, что и как тут работает, и написал программку, которая правит все это дело.



При старте программа определяет, сколько телефонов коннектилось к магнитоле, выводит в выпадающем списке их MAC адреса (в настройках телефона — это зовется Bluetooth MAC). Вам надо выбрать свой MAC адрес, отметить галочкой если хотите исправить, кроме всего прочего, и номера вида 8XXXXXXXXXX на +7XXXXXXXXXX и нажать кнопку.



Если все удачно, программа попросит перегрузить магнитолу, если неудачно — скажет, в чем дело.



Магнитола теперь звонит, определяет номера и делает сопоставление номер<->название_абонента

Теперь, как установить программу. Все просто.

Скопируйте exe файл программы на флешку с навителом (SDCard), в корень прямо.

Затем, в настройках магнитолы, в предпоследнем вроде как, разделе — есть кнопка с путем для запуска навитела /Navitel/navitel.exe - “длинная зеленая кнопка”. Нажмите ее, вам будет показаны все exe файлы на флешке. Если вы раньше не вмешивались в магнитолу — там будет всего 2 — navitel.exe и chr_7759_fix02_upx.exe. Выбирайте второй.

Теперь при нажатии кнопки Navi, запустится моя программа. Сделайте все, как я описал выше. Перегрузитесь, и смените кнопку снова на navitel.exe

Брать тут
[[Ссылки могут видеть только зарегистрированные пользователи. ]]>



Мультимедиа плеер (cd/dvd/mp3)
Мультимедиа плеер (cd/dvd/mp3)

Физически, cd/dvd/mp3 играет сам привод. В системе (wince), вы не увидете флешки, или привода. Доступ к приводу и сам процесс проигрывания делает программа /ResidentFlash/bin/DVCD.exe

Она срабатывает когда вы вставляете диск\флешку.

При подключении USB флешки программа запускается с параметром: DVCD.exe
USB


При подключении CD/DVD программа запускается с параметром: DVCD.exe DVD

Просто поставить абстрактный плеер не выйдет т.к. софт работает напрямую с железякой. Пока ищу варианты.
des00 вне форума  
5 пользователя(ей) сказали cпасибо:
Старый 03.03.2014, 16:45   #3
turinec
Новичок
Доп. информация
По умолчанию

Кое как нашел джойстик Сони резистивный, сегодня поставил, сразу все настроилось. Вкл/выкл; звук; треки/позиции радио; скан радио; переход между медиа; телефон ответить-завершить; муте.

[[Ссылки могут видеть только зарегистрированные пользователи. ]]>
[[Ссылки могут видеть только зарегистрированные пользователи. ]]>
turinec вне форума  
Старый 10.03.2014, 15:36   #4
Flaner55
Новичок
Доп. информация
По умолчанию

Привет, а как джойстик подключил? Разъем подходит разве?? Хочу отключить режим перехода в ночной режим когда габариты включаешь. Не нашел как установить яндекс навигатор под нее, только яндекс карты. ))
Flaner55 вне форума  
Старый 10.03.2014, 16:07   #5
frog2050
Гуру
 
Аватар для frog2050
Доп. информация
По умолчанию

Цитата:
Сообщение от Flaner55 Посмотреть сообщение
Не нашел как установить яндекс навигатор

А где вообще есть такое, для WinCE 6 ?
Можно ссылочку.
__________________
[[Ссылки могут видеть только зарегистрированные пользователи. ]]> Представьте что у вас дома есть DVD медиа плеер с выходом HDMI и есть комп, тоже с выходом HDMI и оба они подключены к телеку.
Так вот, скажите как ваш комп увидит флешку вставленную в DVD плеер, хотя телек и показывает содержимое вашей флешки и комп тоже показывает на телеке.
Может так легче понять, как устроен медиа комбайн в машине ?
Сейчас у меня Citroen C4L Sedan с разными магнитолами
Раздача читательских билетов - бесплатно !!!
За что раздаётся :
[[Ссылки могут видеть только зарегистрированные пользователи. ]]>
frog2050 вне форума  
Старый 10.03.2014, 16:40   #6
sadik_5
Старичок
Доп. информация
По умолчанию

Яндекс навигатор для Win CE не существует. Только Яндекс Карты.
sadik_5 вне форума  
Старый 10.03.2014, 16:41   #7
Flaner55
Новичок
Доп. информация
По умолчанию

Да нету, только яндекс карты для WINCE
Flaner55 вне форума  
Старый 11.03.2014, 16:29   #8
synthraven
Новичок
Доп. информация
По умолчанию

Поставил недавно такую голову.

Не получается сопрячь со смартфоном. Нажимаю на телефоне "Сопряжение", через пару чекунд попыток- слетает. Ресетил магнитолу и телефон.

Прошу помощи
synthraven вне форума  
Старый 11.03.2014, 17:57   #9
frog2050
Гуру
 
Аватар для frog2050
Доп. информация
По умолчанию

На телефоне надо включить видимость, на магнитоле поиск нового устройства.
Как найдет, далее переходим на телефон и нажимаем поиск.
к найденной магнитоле подключаемся и вводим код доступа(у всех разный бывает, у меня 1234) и магнитола радостно сообщает о спаривании
Бывают правда телефоны несовместимые с автомагнитолами, чаще всего это телефоны на Windows и новые iOs начиная с 6й версии OS
__________________
[[Ссылки могут видеть только зарегистрированные пользователи. ]]> Представьте что у вас дома есть DVD медиа плеер с выходом HDMI и есть комп, тоже с выходом HDMI и оба они подключены к телеку.
Так вот, скажите как ваш комп увидит флешку вставленную в DVD плеер, хотя телек и показывает содержимое вашей флешки и комп тоже показывает на телеке.
Может так легче понять, как устроен медиа комбайн в машине ?
Сейчас у меня Citroen C4L Sedan с разными магнитолами
Раздача читательских билетов - бесплатно !!!
За что раздаётся :
[[Ссылки могут видеть только зарегистрированные пользователи. ]]>
frog2050 вне форума  
Старый 13.03.2014, 15:18   #10
turinec
Новичок
Доп. информация
По умолчанию

Цитата:
Сообщение от Flaner55 Посмотреть сообщение
Привет, а как джойстик подключил? Разъем подходит разве?? Хочу отключить режим перехода в ночной режим когда габариты включаешь. Не нашел как установить яндекс навигатор под нее, только яндекс карты. ))

Разъем ДЖЕК просто обрезал и два провода прикрутил к выходам магнитолы по инструкции и экран провода на массу. Можно и разъем-маму джека прикрутить, просто под рукой не было когда делал.
А ночной режим отключил просто провод перерезал который по схеме называется "подсветка" (оранжевый). Есть такое, слабоватый экран у этой модельки.
Про карты ни чем не смогу помочь.
turinec вне форума  
Старый 17.03.2014, 12:13   #11
synthraven
Новичок
Доп. информация
По умолчанию

Цитата:
Сообщение от frog2050 Посмотреть сообщение
На телефоне надо включить видимость, на магнитоле поиск нового устройства.
Как найдет, далее переходим на телефон и нажимаем поиск.
к найденной магнитоле подключаемся и вводим код доступа(у всех разный бывает, у меня 1234) и магнитола радостно сообщает о спаривании
Бывают правда телефоны несовместимые с автомагнитолами, чаще всего это телефоны на Windows и новые iOs начиная с 6й версии OS


Информация конкретно по данной магнитоле? Как на ней запустить поиск телефона? На кукую из кнопок и в каком подразделе нажать?

Телефон на андройде...
synthraven вне форума  
Старый 17.03.2014, 13:24   #12
turinec
Новичок
Доп. информация
По умолчанию

Цитата:
Сообщение от synthraven Посмотреть сообщение
Информация конкретно по данной магнитоле? Как на ней запустить поиск телефона? На кукую из кнопок и в каком подразделе нажать?

Телефон на андройде...

Поиск надо включать на телефоне, а не в магнитоле. Предварительно конечно включив блютус на магнитоле.
turinec вне форума  
Старый 15.04.2014, 11:43   #13
Sev717
Новичок
Доп. информация
По умолчанию

Пробовал ли кто-нибудь прицепить на этот аппарат альтернативное меню?
Sev717 вне форума  
Старый 17.04.2014, 22:46   #14
ruz137
Вникающий
Доп. информация
По умолчанию 7120

купил такую за 9800 поставил меню wolf

Добавлено через 10 минут
будет время попытаюсь мегафон модем подключить говорят что только ихний подходит

Добавлено через 7 минут
на 4pda написана как
ruz137 вне форума  
Старый 18.04.2014, 09:17   #15
frog2050
Гуру
 
Аватар для frog2050
Доп. информация
По умолчанию

Цитата:
Сообщение от ruz137 Посмотреть сообщение
будет время попытаюсь мегафон модем подключить говорят что только ихний подходит

Говорят в китае Кур доят.
Подходит любой модем совместимый с WinCE и по барабану какого он оператора.
__________________
[[Ссылки могут видеть только зарегистрированные пользователи. ]]> Представьте что у вас дома есть DVD медиа плеер с выходом HDMI и есть комп, тоже с выходом HDMI и оба они подключены к телеку.
Так вот, скажите как ваш комп увидит флешку вставленную в DVD плеер, хотя телек и показывает содержимое вашей флешки и комп тоже показывает на телеке.
Может так легче понять, как устроен медиа комбайн в машине ?
Сейчас у меня Citroen C4L Sedan с разными магнитолами
Раздача читательских билетов - бесплатно !!!
За что раздаётся :
[[Ссылки могут видеть только зарегистрированные пользователи. ]]>
frog2050 вне форума  
Пользователь сказал cпасибо:
Ответ

Опции темы



Текущее время: 06:01. Часовой пояс GMT +3.


Powered by vBulletin® Version 3.8.9
Copyright ©2000 - 2017, Jelsoft Enterprises Ltd. Перевод: zCarot

Копирайты
Время генерации страницы 0.12672 секунды с 12 запросами